CZ-3C DEB, 40868

Orbit data source: Space-Track

CZ-3C DEB, 40868 is space debris in HEO originally from a launch on Fri, 24 Feb 2012 UTC launched from the Xichang Space Center, China (XSC). Debris objects in space refer to the collection of defunct objects orbiting the Earth. Examples of debris include non-operational satellites, rocket bodies, and fragments generated from explosions, collisions, or faulty payload assembly.

Loading next visibility...
Identifier
40868, 2012-008AJ
Orbit
HEO
Country
Flag of CNCN / PRC
Related business
Manufacturer
CALT
Mission
Spacecraft
Bus & Motor
Unknown
Mass
Unknown
Launch date (UTC)
2012-02-24 (14 years ago)
Launch vehicle
Unknown
Launch site
Xichang Space Center, China (XSC)
Object type
Payload
Rocket body
Debris
Shape & HBR
Unknown shape, 0.2 m
Radar Cross Section
Medium (>0.1 m² and <1 m²)

Expand to show TLE details & history
Last TLE update: 9 months ago

TLE from 9 months ago
0 CZ-3C DEB
1 40868U 12008AJ  25233.32926772 -.00000099  00000-0  00000-0 0  9999
2 40868  22.2354 358.0661 6805188 284.9150  13.7423  2.28087707989209
Epoch: 2025-08-21T07:54Z
TLE epoch observation values (Epoch: 2025-08-21T07:54:08.731Z)
Latitude
0.00003°
Longitude
-90.35445°
Altitude
4,748.268 km
Speed
7.436 km/s
True Right ascension
23h 52m 18s
True Declination
0° 00' 00"
Sunlit
Object was in full shadow at epoch
Visualization orbit readout
Latitude
Unknown
Longitude
Unknown
Altitude
Unknown
Speed
Unknown
Apparent Right ascension
Unknown
Apparent Declination
Unknown
Sunlit
N/A
Visualization observer readout
Local Sidereal Time
23:46:27
Azimuth
Unknown
Elevation
Unknown
Doppler factor
Unknown
Orbital elements
Apogee altitude
34,595.873 km
Perigee altitude
1,411.378 km
Semi-major axis
24,381.762 km
Eccentricity
0.68052
Inclination
22.2354°
RAAN
358.0661°
Arg. of periapsis
284.915°
True anomaly
75.72957°
Mean anomaly
13.7423°
Eccentric anomaly
37.4531°
Mean motion
0.57009 °/min
Orbital period
631.48 mins
BSTAR
0
Loading maneuver chart data...
Computing Atmospheric mass density...
Loading historical data...
Loading historical data...
Loading historical data...
Loading historical data...
Loading historical data...
Loading historical data...
Loading historical data...

Documentation

Showing up to 5 results
|